Doylestown, PA

6:00 AM EST on December 06, 2019 (GMT -0500)
Doylestown

Weather History for KDYL - October, 2019

Change the Weather History Date:

Friday, October 18, 2019

  Actual Average (KTTN) Record (KTTN)
Temperature  
Mean Temperature 51 °F -  
Max Temperature 61 °F 60 °F 83 °F (2016)
Min Temperature 39 °F 41 °F 32 °F (1868)
Degree Days  
Heating Degree Days 14    
Growing Degree Days 1 (Base 50)    
Moisture  
Dew Point 36 °F    
Average Humidity 59    
Maximum Humidity 83    
Minimum Humidity 39    
Precipitation  
Precipitation 0.00 in - - ()
Sea Level Pressure  
Sea Level Pressure 29.89 in    
Wind  
Wind Speed 7 mph (NW)    
Max Wind Speed 16 mph    
Max Gust Speed 28 mph    
Visibility 10 miles    
Events      
Averages and records for this station are not official NWS values.
T = Trace of Precipitation, MM = Missing Value Source: NWS Daily Summary

Daily Weather History Graph

Daily Weather History Graph

Search for Another Location

Airport or City:

Astronomy

Oct. 18, 2019 Rise Set
Actual Time 7:14 AM EDT 6:16 PM EDT
Civil Twilight 6:46 AM EDT 6:43 PM EDT
Nautical Twilight 6:15 AM EDT 7:15 PM EDT
Astronomical Twilight 5:43 AM EDT 7:47 PM EDT
Moon 9:30 PM EDT (10/18) 11:45 AM EDT (10/18)
Length of Visible Light 11h 57m
Length of Day
11h 02m
Waning Gibbous, 79% of the Moon is Illuminated
Oct 18
Waning Gibbous
Oct 21
Last Quarter
Oct 27
New
Nov 4
First Quarter
Nov 12
Full

Hourly Weather History & Observations

Time (EDT) Temp. Windchill Dew Point Humidity Pressure Visibility Wind Dir Wind Speed Gust Speed Precip Events Conditions
1:54 AM 51.1 °F - 37.9 °F 61% 29.72 in 10.0 mi NW 9.2 mph 18.4 mph N/A   Mostly Cloudy
2:54 AM 50.0 °F - 37.0 °F 61% 29.73 in 10.0 mi WNW 8.1 mph - N/A   Scattered Clouds
3:54 AM 50.0 °F - 37.0 °F 61% 29.74 in 10.0 mi Calm Calm - N/A   Overcast
4:54 AM 48.9 °F - 37.0 °F 64% 29.76 in 10.0 mi WNW 5.8 mph - N/A   Mostly Cloudy
5:54 AM 48.9 °F - 37.0 °F 64% 29.78 in 10.0 mi Variable 3.5 mph - N/A   Overcast
6:54 AM 48.9 °F - 37.0 °F 64% 29.80 in 10.0 mi NW 6.9 mph - N/A   Overcast
7:54 AM 50.0 °F - 37.9 °F 63% 29.82 in 10.0 mi NW 8.1 mph - N/A   Mostly Cloudy
8:54 AM 52.0 °F - 37.0 °F 57% 29.85 in 10.0 mi NW 8.1 mph 21.9 mph N/A   Overcast
9:54 AM 52.0 °F - 37.0 °F 57% 29.87 in 10.0 mi North 13.8 mph 25.3 mph N/A   Overcast
11:54 AM 55.0 °F - 37.0 °F 51% 29.88 in 10.0 mi NNW 13.8 mph 25.3 mph N/A   Overcast
12:54 PM 55.9 °F - 37.9 °F 51% 29.90 in 10.0 mi NW 13.8 mph 19.6 mph N/A   Mostly Cloudy
1:54 PM 57.0 °F - 37.0 °F 47% 29.90 in 10.0 mi NNW 10.4 mph 23.0 mph N/A   Mostly Cloudy
2:54 PM 59.0 °F - 37.0 °F 44% 29.91 in 10.0 mi NW 16.1 mph 27.6 mph N/A   Clear
3:54 PM 61.0 °F - 36.0 °F 39% 29.91 in 10.0 mi NW 9.2 mph 18.4 mph N/A   Clear
4:54 PM 60.1 °F - 35.1 °F 39% 29.91 in 10.0 mi NNW 4.6 mph - N/A   Clear
5:54 PM 57.0 °F - 35.1 °F 44% 29.93 in 10.0 mi Variable 4.6 mph - N/A   Clear
6:54 PM 52.0 °F - 35.1 °F 53% 29.95 in 10.0 mi North 3.5 mph - N/A   Clear
7:54 PM 50.0 °F - 35.1 °F 57% 29.99 in 10.0 mi Variable 3.5 mph - N/A   Clear
8:54 PM 46.0 °F - 36.0 °F 68% 30.01 in 10.0 mi Calm Calm - N/A   Clear
9:54 PM 41.0 °F 39.0 °F 35.1 °F 79% 30.04 in 10.0 mi SE 3.5 mph - N/A   Clear
10:54 PM 41.0 °F - 36.0 °F 82% 30.04 in 10.0 mi Calm Calm - N/A   Clear
11:54 PM 39.9 °F - 35.1 °F 83% 30.04 in 10.0 mi Calm Calm - N/A   Clear